Weather History for KDEQ - January, 2013

Change the Weather History Date:

Saturday, January 12, 2013

  Actual Average Record
Temperature  
Mean Temperature 57 °F 41 °F  
Max Temperature 71 °F 53 °F 77 °F (1995)
Min Temperature 43 °F 30 °F -5 °F (1962)
Degree Days  
Heating Degree Days 8 24  
Month to date heating degree days 252 282  
Since 1 July heating degree days 1377 1491  
Cooling Degree Days 0 0  
Month to date cooling degree days 0 0  
Year to date cooling degree days 0 0  
Growing Degree Days 7 (Base 50)    
Moisture  
Dew Point 56 °F    
Average Humidity 90    
Maximum Humidity 100    
Minimum Humidity 80    
Precipitation  
Precipitation 0.96 in 0.11 in 2.28 in (1998)
Month to date precipitation 1.30 1.32  
Year to date precipitation 1.30 1.32  
Snow  
Snow 0.00 in - - ()
Month to date snowfall 0.0  
Since 1 July snowfall 4.5  
Snow Depth 0.00 in    
Sea Level Pressure  
Sea Level Pressure 29.77 in    
Wind  
Wind Speed 6 mph (North)    
Max Wind Speed 16 mph    
Max Gust Speed 26 mph    
Visibility 5 miles    
Events Fog , Rain    
T = Trace of Precipitation, MM = Missing Value Source: NWS Daily Summary

Daily Weather History Graph

Daily Weather History Graph

Search for Another Location

Airport or City:

Trip Planner

Search our weather history database for the weather conditions in past years. The results will help you decide how hot, cold, wet, or windy it might be!

Date:

Astronomy

Jan. 12, 2013 Rise Set
Actual Time 7:23 AM CST 5:28 PM CST
Civil Twilight 6:56 AM CST 5:56 PM CST
Nautical Twilight 6:25 AM CST 6:27 PM CST
Astronomical Twilight 5:55 AM CST 6:57 PM CST
Moon 7:47 AM CST (1/12) 6:53 PM CST (1/12)
Length of Visible Light 11h 00m
Length of Day
10h 05m
New Moon, 1% of the Moon is Illuminated
Jan 12
New Moon
Jan 18
First Quarter
Jan 26
Full
Feb 3
Last Quarter
Feb 10
New

Hourly Weather History & Observations

Time (CST) Temp. Windchill Dew Point Humidity Pressure Visibility Wind Dir Wind Speed Gust Speed Precip Events Conditions
12:41 AM 55.9 °F - 50.0 °F 80% 29.88 in 10.0 mi East 4.6 mph - N/A   Overcast
12:53 AM 55.9 °F - 50.0 °F 80% 29.88 in 10.0 mi ENE 3.5 mph - N/A   Overcast
1:53 AM 57.0 °F - 51.1 °F 81% 29.88 in 10.0 mi NE 3.5 mph - N/A   Overcast
2:53 AM 57.0 °F - 52.0 °F 83% 29.87 in 10.0 mi Calm Calm - N/A   Overcast
3:53 AM 57.9 °F - 53.1 °F 84% 29.85 in 10.0 mi NE 3.5 mph - N/A   Overcast
4:13 AM 57.0 °F - 53.1 °F 87% 29.85 in 10.0 mi Calm Calm - N/A   Overcast
4:53 AM 57.9 °F - 53.1 °F 84% 29.84 in 10.0 mi East 4.6 mph - N/A   Overcast
6:02 AM 57.9 °F - 55.9 °F 93% 29.84 in 3.0 mi ENE 4.6 mph - N/A   Overcast
6:09 AM 57.9 °F - 55.9 °F 93% 29.83 in 2.5 mi NE 5.8 mph - N/A   Overcast
6:22 AM 57.9 °F - 55.9 °F 93% 29.83 in 4.0 mi East 5.8 mph - N/A   Overcast
6:53 AM 57.9 °F - 55.9 °F 93% 29.81 in 4.0 mi ENE 3.5 mph - N/A   Overcast
7:26 AM 57.9 °F - 57.0 °F 97% 29.83 in 1.8 mi ENE 3.5 mph - 0.03 in Rain Rain
7:53 AM 57.9 °F - 57.0 °F 97% 29.83 in 1.2 mi Calm Calm - 0.09 in Rain Light Rain
8:03 AM 57.9 °F - 57.0 °F 97% 29.84 in 0.8 mi NNW 3.5 mph - 0.07 in Rain Light Rain
8:11 AM 57.9 °F - 57.0 °F 97% 29.84 in 1.0 mi NE 3.5 mph - 0.07 in Rain Light Rain
8:24 AM 57.9 °F - 57.0 °F 97% 29.84 in 2.0 mi NE 3.5 mph - 0.07 in   Overcast
8:32 AM 57.9 °F - 57.0 °F 97% 29.84 in 1.8 mi Calm Calm - 0.07 in   Overcast
8:41 AM 57.9 °F - 57.0 °F 97% 29.84 in 2.0 mi Calm Calm - 0.07 in Rain Light Rain
8:46 AM 57.9 °F - 57.0 °F 97% 29.85 in 0.8 mi SE 4.6 mph - 0.13 in Rain Heavy Rain
8:51 AM 57.2 °F - 57.2 °F 100% 29.85 in 0.2 mi WNW 3.5 mph - 0.24 in Fog , Rain Heavy Rain
8:53 AM 57.9 °F - 57.0 °F 97% 29.84 in 0.2 mi NW 5.8 mph - 0.26 in Fog , Rain Heavy Rain
9:02 AM 57.9 °F - 57.9 °F 100% 29.85 in 1.0 mi Calm Calm - 0.00 in Rain Light Rain
9:13 AM 57.9 °F - 57.0 °F 97% 29.85 in 1.5 mi Calm Calm - 0.00 in Rain Light Rain
9:34 AM 57.9 °F - 57.9 °F 100% 29.84 in 2.0 mi Calm Calm - 0.02 in Rain Light Rain
9:48 AM 59.0 °F - 57.2 °F 94% 29.84 in 1.8 mi East 3.5 mph - 0.03 in Rain Rain
9:53 AM 59.0 °F - 57.9 °F 96% 29.83 in 2.0 mi East 3.5 mph - 0.03 in Rain Light Rain
10:06 AM 59.0 °F - 57.9 °F 96% 29.83 in 3.0 mi East 3.5 mph - 0.00 in   Overcast
10:48 AM 60.8 °F - 59.0 °F 94% 29.82 in 4.0 mi East 3.5 mph - 0.00 in   Overcast
10:53 AM 60.1 °F - 59.0 °F 96% 29.81 in 3.0 mi ENE 3.5 mph - 0.00 in   Overcast
11:04 AM 60.1 °F - 59.0 °F 96% 29.81 in 4.0 mi East 3.5 mph - 0.00 in Rain Light Rain
11:24 AM 61.0 °F - 59.0 °F 93% 29.80 in 4.0 mi ENE 3.5 mph - 0.00 in Rain Light Rain
11:53 AM 61.0 °F - 60.1 °F 97% 29.77 in 2.5 mi East 3.5 mph - 0.00 in   Overcast
12:26 PM 62.1 °F - 60.1 °F 93% 29.74 in 1.2 mi East 5.8 mph - 0.02 in Rain Heavy Rain
12:47 PM 60.8 °F - 60.8 °F 100% 29.72 in 3.0 mi East 3.5 mph - 0.02 in   Overcast
12:53 PM 62.1 °F - 60.1 °F 93% 29.71 in 3.0 mi East 3.5 mph - 0.02 in Rain Light Rain
1:29 PM 63.0 °F - 61.0 °F 93% 29.70 in 6.0 mi Calm Calm - 0.00 in   Overcast
1:53 PM 64.0 °F - 62.1 °F 93% 29.67 in 4.0 mi Calm Calm - 0.00 in Rain Light Rain
2:05 PM 64.0 °F - 62.1 °F 93% 29.68 in 4.0 mi Calm Calm - 0.00 in   Overcast
2:13 PM 64.0 °F - 62.1 °F 93% 29.67 in 2.5 mi ENE 3.5 mph - 0.00 in   Overcast
2:44 PM 64.9 °F - 64.0 °F 97% 29.65 in 4.0 mi Calm Calm - 0.00 in   Overcast
2:53 PM 66.9 °F - 64.9 °F 93% 29.63 in 5.0 mi SSE 6.9 mph - 0.00 in   Overcast
3:53 PM 71.1 °F - 66.9 °F 87% 29.64 in 8.0 mi South 9.2 mph 21.9 mph 0.00 in   Overcast
4:53 PM 71.1 °F - 66.0 °F 84% 29.63 in 7.0 mi South 12.7 mph 23.0 mph 0.00 in Rain Light Rain
5:53 PM 68.0 °F - 64.0 °F 87% 29.65 in 9.0 mi WNW 11.5 mph 21.9 mph 0.00 in   Overcast
5:56 PM 66.0 °F - 63.0 °F 90% 29.66 in 1.0 mi West 9.2 mph 23.0 mph 0.18 in Rain Light Rain
6:04 PM 64.9 °F - 63.0 °F 93% 29.66 in 0.8 mi WNW 11.5 mph - 0.21 in Rain Heavy Rain
6:07 PM 64.9 °F - 63.0 °F 93% 29.67 in 2.5 mi West 12.7 mph 19.6 mph 0.22 in Rain Light Rain
6:17 PM 64.0 °F - 62.1 °F 93% 29.66 in 1.0 mi WSW 8.1 mph - 0.37 in Rain Rain
6:22 PM 64.0 °F - 62.1 °F 93% 29.67 in 3.0 mi WSW 11.5 mph - 0.37 in Rain Light Rain
6:29 PM 64.0 °F - 62.1 °F 93% 29.68 in 1.2 mi West 11.5 mph - 0.50 in Rain Heavy Rain
6:31 PM 64.0 °F - 62.1 °F 93% 29.67 in 0.8 mi West 8.1 mph - 0.55 in Rain Heavy Rain
6:33 PM 63.0 °F - 62.1 °F 97% 29.67 in 0.8 mi West 9.2 mph - 0.56 in Rain Heavy Rain
6:38 PM 63.0 °F - 62.1 °F 97% 29.68 in 1.0 mi West 9.2 mph - 0.56 in Rain Light Rain
6:41 PM 63.0 °F - 62.1 °F 97% 29.69 in 3.0 mi West 11.5 mph - 0.56 in Rain Light Rain
6:48 PM 62.6 °F - 60.8 °F 94% 29.69 in 10.0 mi West 10.4 mph - 0.56 in   Overcast
6:53 PM 63.0 °F - 61.0 °F 93% 29.68 in 10.0 mi West 9.2 mph - 0.56 in   Overcast
7:12 PM 62.1 °F - 60.1 °F 93% 29.70 in 10.0 mi WSW 10.4 mph - N/A   Overcast
7:49 PM 59.0 °F - 57.2 °F 94% 29.70 in 10.0 mi NW 5.8 mph - 0.00 in   Overcast
7:53 PM 59.0 °F - 57.0 °F 93% 29.70 in 10.0 mi NNW 6.9 mph - 0.00 in   Overcast
8:07 PM 55.0 °F - 52.0 °F 89% 29.72 in 10.0 mi North 11.5 mph - N/A   Overcast
8:11 PM 53.1 °F - 50.0 °F 89% 29.72 in 10.0 mi NNW 12.7 mph 19.6 mph N/A   Overcast
8:26 PM 50.0 °F - 46.9 °F 89% 29.74 in 10.0 mi North 8.1 mph - N/A   Overcast
8:53 PM 48.0 °F - 44.1 °F 86% 29.75 in 10.0 mi NNW 13.8 mph - N/A   Overcast
9:01 PM 46.9 °F - 43.0 °F 86% 29.76 in 10.0 mi NNW 10.4 mph - N/A   Overcast
9:29 PM 46.0 °F 40.2 °F 42.1 °F 86% 29.79 in 10.0 mi NNW 12.7 mph - N/A   Overcast
9:53 PM 45.0 °F 41.2 °F 41.0 °F 86% 29.78 in 10.0 mi NW 6.9 mph 17.3 mph N/A   Overcast
10:00 PM 45.0 °F 43.5 °F 41.0 °F 86% 29.79 in 10.0 mi NNW 3.5 mph - N/A   Overcast
11:03 PM 44.1 °F 39.5 °F 39.9 °F 85% 29.80 in 10.0 mi NW 8.1 mph - N/A   Overcast
11:18 PM 43.0 °F 38.8 °F 39.0 °F 86% 29.81 in 10.0 mi WNW 6.9 mph - N/A   Overcast
11:35 PM 43.0 °F 38.2 °F 39.0 °F 86% 29.82 in 10.0 mi NW 8.1 mph - N/A   Overcast
11:53 PM 43.0 °F 38.8 °F 39.0 °F 86% 29.82 in 10.0 mi NW 6.9 mph - N/A   Overcast